Regional Weather Roundup
Issued by NWS Wakefield, VA

Home | Current Version | Previous Version | Text Only | Print | Product List | Glossary On
Versions: 1 2 3 4 5 6 7 8 9 10 11 12 13 14 15 16 17 18 19 20 21 22 23 24 25 26 27
000
ASUS41 KAKQ 190015
RWRAKQ

REGIONAL WEATHER ROUNDUP
NATIONAL WEATHER SERVICE WAKEFIELD VA
700 PM EST WED JAN 18 2017

Note: "fair" indicates few or no clouds below 12,000 feet with no
significant weather and/or obstructions to visibility. * = Denotes
station may not report precipitation (e.g., rain,snow,etc.),
thunder or fog.

VAZ042-051-052>054-056-190100-
NORTHERN VIRGINIA

CITY           SKY/WX    TMP DP  RH WIND       PRES   REMARKS
WASH NATIONAL  PTCLDY    50  36  58 NW15      30.06R
DULLES         PTCLDY    47  34  60 N9        30.07R
FORT BELVOIR   CLEAR     50  36  57 N10       30.06R
QUANTICO       CLEAR     51  38  60 N12       30.06R
FREDERICKSBRG* CLEAR     51  39  62 N6        30.04R
STAFFORD*      CLEAR     49  37  62 N8        30.08S
WARRENTON      CLEAR     48  33  57 N6        30.05R
CULPEPER*      CLEAR     48  37  64 NE8       30.06R
MANASSAS*      CLEAR    N/A N/A N/A N6        30.08R
LEESBURG*      PTCLDY    46  37  71 N6        30.08R
WINCHESTER     PTCLDY    41  34  75 NW14      30.07S
FRONT ROYAL*   FAIR      45  34  65 NW7       30.06R
LURAY*         FAIR      45  37  76 CALM      30.06R
$$

VAZ048-049-060>072-079>083-190100-
CENTRAL AND SOUTH CENTRAL VIRGINIA

CITY           SKY/WX    TMP DP  RH WIND       PRES   REMARKS
RICHMOND       PTCLDY    51  39  63 NE5       30.03R
CHESTERFIELD*  FAIR      46  25  42 CALM      30.05R
PETERSBURG*    CLEAR     43  36  75 CALM      30.03R
HANOVER        CLEAR     50  36  58 CALM      30.05R
TAPPAHANNOCK*  CLEAR     51  31  45 CALM      30.05R
QUINTON*       FAIR      53  38  57 MISG      30.03R
CHARLOTTSVILLE CLEAR     52  35  52 N5        30.03R
GORDONSVILLE*  FAIR      44  38  78 CALM      30.03R
ORANGE*          N/A     43  36  75 CALM      30.06R
LOUISA*        CLEAR     45  39  81 CALM      30.03R
BUMPASS*       FAIR      47  37  70 CALM      30.04R
FARMVILLE*     CLEAR     50  39  66 N5        30.02R
CREWE*         FAIR      48  38  67 CALM      30.03R
FORT PICKETT*  FAIR      51  30  44 NW3       30.04R
CHASE CITY*    FAIR      51  34  52 CALM      30.04R
CLARKSVILLE*   FAIR      54  36  50 CALM      30.04R
SOUTH HILL*    CLEAR     50  37  62 CALM      30.08R
LAWRENCEVILLE* FAIR      49  37  63 NW3       30.03R
EMPORIA*       CLEAR     45  37  76 CALM      30.04R
$$

VAZ088>098-190100-
SOUTHEAST VIRGINIA

CITY           SKY/WX    TMP DP  RH WIND       PRES   REMARKS
NORFOLK        CLEAR     46  42  86 N3        30.02R
VIRGINIA BEACH PTCLDY    42  41  96 NW5       30.02R
NORFOLK NAVAL  CLEAR     46  43  89 CALM      30.04R
WEST POINT*    CLEAR     52  36  55 CALM      30.05R
SALUDA*        FAIR      43  43 100 CALM      30.03R
NEWPORT NEWS   CLEAR     43  42  97 CALM      30.03R
LANGLEY AFB    CLEAR     45  44  95 CALM      30.02R
FORT EUSTIS    CLEAR     47  43  86 CALM      30.01R
WILLIAMSBURG*  CLEAR     48  45  87 CALM      30.04R
HR EXEC AP*    FAIR      39  36  87 CALM      30.01S
FRANKLIN*      CLEAR     47  43  87 E5        30.03R
US460-WAKEFLD  CLEAR     47  44  90 CALM      30.03R
$$

VAZ020-022-025-037-045-190100-
WEST CENTRAL AND SOUTHWEST VIRGINIA

CITY           SKY/WX    TMP DP  RH WIND       PRES   REMARKS
STAUNTON*      CLEAR     44  33  63 CALM      30.08R
WAYNESBORO*    FAIR      44  33  64 W3        30.05R
HOT SPRINGS VA PTCLDY    36  36 100 NW12      30.01S
LYNCHBURG      CLEAR     48  35  60 N3        30.05R
DANVILLE       CLEAR     49  37  63 N3        30.05R
SOUTH BOSTON*  FAIR      52  32  46 N3        30.04R
MARTINSVILLE   CLEAR     50  36  58 N8        30.09R
ROANOKE        PTCLDY    47  36  65 NW13      30.10S
BLACKSBURG     CLOUDY    42  37  81 W3        30.12R
DUBLIN*        CLOUDY    44  37  77 W9        30.11S
MARION*        CLOUDY    45  37  75 S5        30.13R
HILLSVILLE*    CLEAR     41  36  83 CALM      30.07S
RICHLANDS*     FAIR     N/A N/A N/A NW3       30.12R
WISE*          PTCLDY    41  36  81 CALM      30.12S
ABINGDON*      PTCLDY    48  39  71 CALM      30.11R
$$

MDZ021>025-VAZ099-100-190100-
SOUTHERN MARYLAND AND THE DELMARVA PENINSULA

CITY           SKY/WX    TMP DP  RH WIND       PRES   REMARKS
PATUXENT RIVER CLOUDY    51  40  65 NW12      30.03R
BAY BRIDGE APT CLOUDY    48  37  66 NW8       30.04S
LEONARDTOWN    CLOUDY    52  36  54 NW7       30.05R
DOVER          CLOUDY    49  49 100 N7        30.03R
GEORGETOWN     CLOUDY    49  43  80 N7        30.03R
EASTON         CLOUDY    52  41  66 N6        30.08R
CAMBRIDGE      CLOUDY    50  41  71 N3        30.04R
SALISBURY      CLOUDY    51  41  68 N12       30.02R
OCEAN CITY     CLOUDY    48  44  86 N9        30.02R
WALLOPS ISLAND CLOUDY    51  44  77 NW7       30.03R
ACCOMACK*      CLOUDY    49  44  85 NW5       30.02R
$$

NCZ012>017-030>032-190100-
NORTH CENTRAL AND EASTERN NORTH CAROLINA

CITY           SKY/WX    TMP DP  RH WIND       PRES   REMARKS
ROANOKE RAPIDS FAIR      55  36  47 NW5       30.02R
RALEIGH        PTCLDY    57  34  41 CALM      30.03R
ELIZABETH CITY CLEAR     47  44  90 CALM      30.02R
AHOSKIE*         N/A     49  47  92 CALM      30.03R
EDENTON*       MOCLDY    52  47  81 CALM      30.02R
CURRITUCK*     CLEAR     48  45  89 CALM      30.02R
KILL DEVIL HLS NOT AVBL
MANTEO         CLEAR     47  46  95 N6        30.01R
CAPE HATTERAS  CLEAR     51  46  83 NE8       30.00R
TARBORO*       NOT AVBL
GOLDSBORO      CLEAR     60  35  39 NE3       30.00R
WASHINGTON     CLEAR     51  46  84 CALM        N/A
GREENVILLE     CLEAR     55  37  50 N5        30.03R
NEW BERN       CLEAR     53  45  74 NE6       30.04R
WILMINGTON     CLEAR     62  42  47 N7        30.00R
$$

VAZ048-190100-
ELSEWHERE

CITY           SKY/WX    TMP DP  RH WIND       PRES   REMARKS
HARRISBURG PA  CLOUDY    47  37  68 NW8       30.04R
BALTIMORE      MOCLDY    50  37  61 NW8       30.04R
ANNAPOLIS      CLOUDY    52  37  56 NW8       30.04R
ANDREWS AFB    CLEAR     48  35  60 NW9       30.04R
PHILADELPHIA   CLOUDY    47  39  74 N13       30.05R
HENDERSON NC   CLEAR     51  33  51 CALM      30.03R
GREENSBORO     PTCLDY    56  37  49 N7        30.03R
ROCKY MOUNT    CLEAR     52  39  61 NE3       30.02R
$$

VAZ100-190100-
MARINE

STATION/POSITION TIME  TEMP    WIND        PRES    WAVE   SWELL
                       AIR SEA DIR/SP/G            HT/PER HT/PER
                 (UTC) (F)     (DEG/KT/KT) (MB)    (FT/S) (FT/S)
CAPE MAY NJ      2342   47 41  360/  7/ 12 1016.4R
LEWES DE         2342   44 41  360/  8/  9 1016.7R
OCEAN-CITY-INLET 2342   47 43   20/  6/  8 1016.7R
WACHAPREAGUE VA  2342   49 51  340/  3/  5 1016.4R
THOMAS POINT MD  0000   52 39  320/  9/ 11   N/A
GOOSES REEF MD   2350   47     330/ 10/ 12 1017.9R
COVE POINT MD    2342   48     350/ 12/ 13 1017.6R
SOLOMONS ISLAND  2342   51 42  330/  7/ 10   N/A
BISHOPS HEAD MD  2342   52 44  360/  4/  7 1017.2R
PINEY POINT MD   2342          360/  8/  8   N/A
POTOMAC MD       2350   47     330/  4/  6 1016.1R
CAMBRIDGE MD     2342   47 40   20/  6/  7 1016.4R
LEWISETTA VA     2342   53 43  340/  7/  8 1016.7R
RAPPAHANNOCK LGT 2342          350/ 15/ 16 1017.2R
STINGRAY PT      2350   44     350/  6/  6 1017.1R
YORK RVR RNG VA  2342   50     340/  8/  8 1016.0R
YORKTOWN VA      2342   47 44  290/  2/  2 1016.4R
JAMESTOWN VA     2350   50      70/  2/  4   N/A
DOMINION TERM VA 2342   48      CALM  /  1 1016.7R
KIPTOPEKE VA     2342      43  360/  5/  5   N/A
CHES BAY BRIDGE  2342   47 43  340/  6/  6 1016.3R
CAPE HENRY VA    2342   47     300/  6/  9   N/A
WILLOUBY STN VA  2342   50     350/  4/  5 1017.5R
S CRANEY ISL VA  2342   47     300/  2/  2 1016.4R
CAPE HENRY BUOY  2342      47                N/A     1/ 7
OFFSHORE WE BUOY 2351      49                N/A     2/ 7
64NM E OF VA BCH 2350   52 56  350/ 17/ 19 1015.1R   5/ 6   2/ 8
DUCK PIER NC     2342   47 46  340/ 10/ 11 1015.6R
44100 DUCK FRF   2335      48                N/A     2/ 4
44056 DUCK FRF   2330      46                N/A     2/ 4
OREGON INLET NC  2342   47 51  340/  5/  6 1015.9R
HATTERAS NC      2342   51 55   10/ 14/ 17 1015.2R
DIAMOND SHLS NC  2350   56 72   20/ 25/ 31 1014.6R   5/ 6
CAPE LOOKOUT NC  0000   53      10/ 13/ 17 1016.3R
$$




USA.gov is the U.S. government's official web portal to all federal, state and local government web resources and services.